GW0118 Weather Reports


time (UTC)temp
C
wind
direction
speed
KPH
gust
KPH
rain 1hr
cm
rain 24hr
cm
rain mn
cm
humidity
%
barometer
mb
20260508153059 11 120 1.6 6.4 0.23 0.46 0.46 88 1011.9
20260508151558 10 143 3.2 8.0 0.28 0.46 0.46 89 1012.3
20260508150110 10 153 3.2 11.3 0.28 0.46 0.46 89 1012.4
20260508144606 10 212 4.8 12.9 0.15 0.46 0.33 87 1012.7
20260508143129 11 212 4.8 16.1 0.05 0.36 0.23 86 1012.7
20260508141606 11 255 0.0 3.2 0.08 0.30 0.18 84 1012.3
20260508140113 10 254 3.2 6.4 0.08 0.28 0.18 85 1012.0
20260508134604 10 295 1.6 9.7 0.15 0.30 0.18 86 1012.1
20260508133110 8 0 1.6 17.7 0.18 0.30 0.18 87 1012.3
20260508131605 8 227 4.8 30.6 0.10 0.25 0.10 86 1012.4
20260508130103 8 276 11.3 40.2 0.08 0.23 0.08 80 1012.5
20260508124602 12 277 12.9 35.4 0.00 0.18 0.00 68 1012.1
20260508121607 15 198 6.4 22.5 0.00 0.18 0.00 64 1011.6
20260508120104 15 229 3.2 19.3 0.00 0.18 0.00 67 1011.6
20260508114600 14 200 4.8 14.5 0.00 0.18 0.00 68 1012.0
20260508113100 13 280 6.4 25.7 0.00 0.18 0.00 70 1012.1
20260508111606 13 216 9.7 17.7 0.00 0.18 0.00 68 1012.4
20260508110111 13 198 4.8 17.7 0.00 0.18 0.00 70 1012.5
20260508104612 12 306 8.0 19.3 0.00 0.18 0.00 71 1012.4
20260508103102 12 176 8.0 20.9 0.00 0.18 0.00 71 1012.3
20260508101557 12 247 6.4 14.5 0.00 0.18 0.00 73 1012.4
20260508100057 12 163 4.8 11.3 0.00 0.18 0.00 74 1012.3
20260508094559 11 158 8.0 19.3 0.00 0.18 0.00 75 1012.3
20260508093100 10 216 8.0 14.5 0.00 0.18 0.00 78 1012.7
20260508091609 10 172 8.0 16.1 0.00 0.18 0.00 81 1012.8
20260508090104 8 0 1.6 4.8 0.00 0.18 0.00 86 1012.8
20260508084614 7 0 0.0 1.6 0.00 0.18 0.00 88 1012.8
20260508083108 7 0 3.2 6.4 0.00 0.18 0.00 90 1012.5
20260508081558 6 35 0.0 1.6 0.00 0.18 0.00 90 1012.5
20260508080111 6 60 0.0 3.2 0.00 0.18 0.00 91 1012.7
20260508074628 6 53 0.0 1.6 0.00 0.18 0.00 90 1012.7
20260508073101 5 60 1.6 4.8 0.00 0.18 0.00 91 1012.7
20260508071558 6 0 0.0 1.6 0.00 0.18 0.00 90 1012.7
20260508070104 5 0 0.0 1.6 0.00 0.18 0.00 91 1012.8
20260508064600 5 67 0.0 1.6 0.00 0.18 0.00 91 1012.8
20260508063059 4 47 0.0 1.6 0.00 0.18 0.00 91 1012.9
20260508061600 4 0 0.0 1.6 0.00 0.18 0.00 91 1012.8
20260508054601 4 0 0.0 0.0 0.00 0.18 0.00 92 1012.6
20260508053103 3 0 0.0 1.6 0.00 0.18 0.00 92 1012.6
20260508051616 3 0 0.0 1.6 0.00 0.18 0.00 92 1012.3
20260508050116 3 0 0.0 1.6 0.00 0.18 0.00 92 1012.1
20260508044559 3 0 0.0 1.6 0.00 0.18 0.00 92 1011.9
20260508043105 4 63 0.0 1.6 0.00 0.18 0.00 92 1011.8
20260508041604 4 121 0.0 1.6 0.00 0.18 0.00 92 1011.8
20260508040114 3 0 0.0 1.6 0.00 0.18 0.00 92 1011.7
20260508034606 3 0 0.0 1.6 0.00 0.18 0.00 92 1011.6
20260508031606 4 0 0.0 1.6 0.00 0.18 0.00 91 1011.7
20260508030104 4 0 0.0 1.6 0.00 0.18 0.00 92 1011.8
20260508024609 4 49 0.0 1.6 0.00 0.18 0.00 92 1012.0
20260508023059 4 0 0.0 0.0 0.00 0.18 0.00 92 1012.3
20260508021602 4 0 0.0 1.6 0.00 0.18 0.00 92 1012.4
20260508014601 5 0 0.0 1.6 0.00 0.18 0.00 92 1012.5
20260508013110 5 0 0.0 4.8 0.00 0.18 0.00 92 1012.8
20260508011600 5 0 0.0 1.6 0.00 0.18 0.00 91 1012.9
20260508010100 5 132 0.0 1.6 0.00 0.18 0.00 91 1013.1
20260508004604 5 129 0.0 0.0 0.00 0.18 0.00 91 1013.2
20260508003104 5 0 0.0 1.6 0.00 0.18 0.00 91 1013.3
20260508001600 6 0 0.0 0.0 0.00 0.18 0.00 90 1013.5
20260507234604 6 0 0.0 3.2 0.00 0.18 0.00 90 1013.7
20260507233117 6 0 0.0 3.2 0.00 0.18 0.00 89 1013.8
20260507231608 6 0 0.0 0.0 0.00 0.18 0.00 89 1013.9
20260507230100 6 222 0.0 4.8 0.00 0.18 0.00 89 1014.0
20260507224559 6 0 0.0 3.2 0.00 0.18 0.00 89 1014.0
20260507221600 7 0 0.0 1.6 0.00 0.18 0.00 88 1013.7
20260507220059 7 0 0.0 1.6 0.00 0.18 0.00 87 1013.8
20260507214603 7 120 0.0 1.6 0.00 0.18 0.18 87 1013.7
20260507213101 7 0 0.0 0.0 0.00 0.18 0.18 87 1013.5
20260507211604 7 184 0.0 1.6 0.00 0.18 0.18 86 1013.5
20260507210114 7 129 1.6 8.0 0.00 0.18 0.18 84 1013.5
20260507204600 8 0 1.6 9.7 0.00 0.18 0.18 84 1013.4
20260507203057 8 119 1.6 9.7 0.00 0.18 0.18 83 1013.1
20260507201600 8 116 3.2 8.0 0.00 0.18 0.18 84 1013.0
20260507200105 8 76 1.6 4.8 0.00 0.18 0.18 82 1012.7
20260507194601 9 63 0.0 11.3 0.00 0.18 0.18 80 1012.5
20260507193059 10 67 4.8 8.0 0.00 0.18 0.18 75 1012.4
20260507191603 10 110 0.0 3.2 0.00 0.18 0.18 73 1012.3
20260507190113 12 43 0.0 1.6 0.00 0.18 0.18 68 1012.2
20260507184558 12 270 0.0 4.8 0.00 0.18 0.18 67 1012.2
20260507183115 12 265 4.8 9.7 0.00 0.18 0.18 67 1012.3
20260507181606 12 267 3.2 6.4 0.00 0.18 0.18 66 1012.1
20260507180104 12 258 4.8 11.3 0.00 0.18 0.18 67 1012.1
20260507174605 12 229 3.2 8.0 0.00 0.18 0.18 68 1012.0
20260507173120 13 301 1.6 6.4 0.00 0.18 0.18 67 1012.1
20260507171600 12 278 1.6 8.0 0.00 0.18 0.18 70 1012.0
20260507170059 12 253 6.4 11.3 0.00 0.18 0.18 68 1012.1
20260507164631 12 248 6.4 14.5 0.00 0.18 0.18 70 1012.1
20260507163101 12 219 4.8 9.7 0.00 0.18 0.18 73 1012.1
20260507161605 12 260 1.6 6.4 0.00 0.18 0.18 69 1012.0
20260507154601 11 245 0.0 6.4 0.00 0.18 0.18 76 1011.7